Tiempo atmosférico en la estación meteorológica de Arico, Santa Cruz de Tenerife (418 m.)



Fecha
DESCASC
Temp. máxima en grados centígrados (hora)
DESCASC
Temp. mínima en grados centígrados (hora)
DESCASC
Temp. media en grados centígrados
DESCASC
Racha de viento máxima en m/sg (hora)
DESCASC
Velocidad máxima media en intervalos de 10 minutos(hora)
DESCASC
Precipitaciones diarias en mm
DESCASC
Precipitaciones de 00:00 a 06:00 en mm
DESCASC
Precipitaciones de 06:00 a 12:00 en mm
DESCASC
Precipitaciones de 12:00 a 18:00 en mm
DESCASC
Precipitaciones de 18:00 a 24:00 en mm
DESCASC
13-01-2021 16.4 (12:20) 11.7 (23:30) 14 13.06 (12:50) 8.33 (12:50) 0 0 0 0 0
12-01-2021 16.2 (12:50) 10.9 (01:20) 13.6 10.56 (12:40) 6.39 (12:30) 0 0 0 0 0
11-01-2021 18 (14:00) 10.4 (08:10) 14.2 14.17 (14:50) 6.39 (13:30) 0 0 0 0 0
10-01-2021 17.4 (13:30) 11.3 (02:10) 14.3 13.89 (22:20) 6.11 (04:10) 0 0 0 0 0
09-01-2021 16.7 (15:50) 10.7 (00:00) 13.7 13.06 (14:40) 6.94 (23:10) 1.6 0 1.2 0.4 0
08-01-2021 18.6 (10:50) 12.1 (00:00) 15.4 9.17 (02:10) 5.28 (02:10) 5.8 0 0 5.2 0.6
07-01-2021 19.9 (11:40) 15.3 (00:00) 17.6 23.06 (06:50) 13.61 (15:30) 39.2 0 25.8 10 3.4
06-01-2021 21.4 (15:00) 15 (00:00) 18.2 19.17 (07:10) 11.67 (07:30) 24.4 2 22.4 0 0
05-01-2021 22.5 (12:40) 14.4 (00:00) 18.4 6.11 (06:50) 3.89 (03:20) 0 0 0 0 0
04-01-2021 16.5 (21:50) 13.1 (00:00) 14.8 17.22 (17:20) 12.78 (16:50) 2 0.2 1.4 0.4 0
03-01-2021 16.8 (15:10) 12.8 (00:00) 14.8 6.94 (02:10) 3.61 (22:50) 0 0 0 0 0
02-01-2021 16.6 (13:50) 11.3 (00:00) 14 9.72 (12:50) 5 (14:30) 0 0 0 0 0
01-01-2021 18 (13:10) 11 (00:00) 14.5 10.28 (17:00) 6.39 (16:30) 0 0 0 0 0
31-12-2020 18.2 (11:30) 11.5 (00:00) 14.9 7.5 (13:00) 4.72 (13:20) 9.6 0 0 9.6 0
30-12-2020 19 (13:00) 11.4 (00:00) 15.2 7.78 (13:10) 4.44 (13:10) 5 0 0 3 2
29-12-2020 17.3 (12:20) 12.6 (00:00) 14.9 10.56 (12:50) 5.56 (13:20) 0 0 0 0 0
28-12-2020 21.7 (12:30) 13.5 (00:00) 17.6 6.94 (16:30) 4.44 (17:10) 0 0 0 0 0
27-12-2020 20 (13:40) 14.2 (00:00) 17.1 6.11 (23:50) 5 (23:50) 6.8 6.8 0 0 0
26-12-2020 19.8 (12:50) 14.3 (00:00) 17 7.78 (14:00) 5.28 (14:10) 2 0 1.2 0 0.8
25-12-2020 20.6 (11:40) 14.1 (00:00) 17.4 6.39 (06:50) 4.17 (00:10) 0 0 0 0 0
24-12-2020 20.5 (12:00) 14.9 (00:00) 17.7 10 (03:10) 4.72 (03:00) 0 0 0 0 0
23-12-2020 21.7 (11:10) 14.3 (22:40) 18 7.78 (01:20) 5 (01:10) 0 0 0 0 0
21-12-2020 19.1 (15:20) 13.8 (00:00) 16.5 8.06 (09:40) 4.72 (10:50) 0 0 0 0 0
20-12-2020 19.7 (11:20) 13.3 (00:00) 16.5 7.5 (09:30) 5.28 (10:50) 0 0 0 0 0
19-12-2020 17.5 (12:20) 12.1 (00:00) 14.8 8.61 (11:30) 5 (11:30) 0 0 0 0 0
18-12-2020 19 (13:00) 12 (00:00) 15.5 9.72 (16:50) 5.83 (15:30) 0 0 0 0 0
17-12-2020 19.1 (11:00) 13.1 (00:00) 16.1 12.5 (15:50) 7.5 (16:00) 0 0 0 0 0

Gráficas

Temp. máximas Temp. mínimas Temp. medias Precipitaciones Rachas de viento máximas Velocidades máximas media en intervalos de 10 minutos

Datos horarios

Fecha y hora oficial Temperatura (ºC) Velocidad del viento (km/h) Dirección del viento Racha (km/h) Dirección de racha Precipitación (mm) Presión (hPa) Tendencia (hPa) Humedad (%)
2021-01-15 23:00:00 13 23 Nordeste 50 Nordeste 0 -- -- 71
2021-01-15 22:00:00 13.3 31 Nordeste 46 Nordeste 0 -- -- 68
2021-01-15 21:00:00 13.4 27 Nordeste 45 Nordeste 0 -- -- 70
2021-01-15 20:00:00 13.6 26 Nordeste 44 Nordeste 0 -- -- 71
2021-01-15 19:00:00 13.5 26 Nordeste 48 Nordeste 0 -- -- 75
2021-01-15 18:00:00 14.1 27 Nordeste 51 Nordeste 0 -- -- 74
2021-01-15 17:00:00 15.5 24 Nordeste 49 Nordeste 0 -- -- 71
2021-01-15 16:00:00 16 28 Nordeste 52 Este 0 -- -- 55
2021-01-15 15:00:00 15.6 30 Nordeste 44 Nordeste 0 -- -- 63
2021-01-15 14:00:00 16.3 25 Nordeste 48 Nordeste 0 -- -- 66
2021-01-15 13:00:00 17.1 26 Nordeste 44 Nordeste 0 -- -- 56
2021-01-15 12:00:00 15.3 22 Nordeste 48 Nordeste 0 -- -- 61
2021-01-15 11:00:00 15.9 22 Nordeste 52 Nordeste 0 -- -- 57
2021-01-15 10:00:00 13.8 26 Nordeste 46 Nordeste 0 -- -- 63
2021-01-15 09:00:00 12.9 21 Nordeste 40 Norte 0 -- -- 67
2021-01-15 08:00:00 12.8 24 Nordeste 43 Nordeste 0 -- -- 66
2021-01-15 07:00:00 12.5 25 Nordeste 44 Nordeste 0 -- -- 65
2021-01-15 06:00:00 12.6 23 Nordeste 46 Nordeste 0 -- -- 70
2021-01-15 05:00:00 12.7 20 Nordeste 38 Nordeste 0 -- -- 70
2021-01-15 04:00:00 12.8 18 Nordeste 47 Nordeste 0 -- -- 75
2021-01-15 03:00:00 12.7 29 Nordeste 45 Norte 0 -- -- 71
2021-01-15 02:00:00 13.2 26 Nordeste 45 Nordeste 0 -- -- 79
2021-01-15 01:00:00 13.6 25 Nordeste 39 Nordeste 0 -- -- 71
2021-01-15 00:00:00 13.3 27 Nordeste 44 Nordeste 0 -- -- 62
2021-01-14 23:00:00 12.7 22 Nordeste 44 Nordeste 0 -- -- 61
2021-01-14 22:00:00 12.7 18 Nordeste 31 Nordeste 0 -- -- 74
2021-01-14 21:00:00 13.3 21 Nordeste 40 Nordeste 0 -- -- 73
2021-01-14 20:00:00 13.4 24 Nordeste 42 Nordeste 0 -- -- 76
2021-01-14 19:00:00 13.4 15 Nordeste 31 Nordeste 0 -- -- 76
2021-01-14 18:00:00 13.7 18 Nordeste 27 Nordeste 0 -- -- 72
2021-01-14 17:00:00 13.6 14 Nordeste 28 Nordeste 0 -- -- 74
2021-01-14 16:00:00 13.6 18 Nordeste 29 Nordeste 0 -- -- 76
2021-01-14 15:00:00 13.9 17 Nordeste 30 Nordeste 0 -- -- 75
2021-01-14 14:00:00 14 17 Nordeste 27 Nordeste 0 -- -- 74
2021-01-14 13:00:00 14.1 15 Nordeste 26 Nordeste 0 -- -- 75
2021-01-14 12:00:00 13.6 16 Nordeste 29 Norte 0 -- -- 77
2021-01-14 11:00:00 14 17 Nordeste 28 Nordeste 0 -- -- 74
2021-01-14 10:00:00 13.7 13 Nordeste 25 Nordeste 0 -- -- 75
2021-01-14 09:00:00 13 16 Nordeste 31 Nordeste 0 -- -- 77
2021-01-14 08:00:00 11.9 13 Norte 22 Nordeste 0 -- -- 70
2021-01-14 07:00:00 11.3 7 Norte 19 Norte 0 -- -- 64
2021-01-14 06:00:00 12 13 Norte 25 Norte 0 -- -- 64
2021-01-14 05:00:00 11.3 7 Norte 15 Nordeste 0 -- -- 61
2021-01-14 04:00:00 11 6 Norte 17 Norte 0 -- -- 59
2021-01-14 03:00:00 10.9 5 Noroeste 12 Nordeste 0 -- -- 55
2021-01-14 02:00:00 11.4 6 Norte 21 Norte 0 -- -- 51
2021-01-14 01:00:00 11.8 14 Norte 24 Norte 0 -- -- 59
2021-01-14 00:00:00 11.8 13 Norte 23 Nordeste 0 -- -- 60
2021-01-13 23:00:00 12.3 14 Norte 27 Norte 0 -- -- 61
2021-01-13 22:00:00 12.5 18 Norte 27 Norte 0 -- -- 66
2021-01-13 21:00:00 12.7 17 Nordeste 27 Nordeste 0 -- -- 69
2021-01-13 20:00:00 12.5 15 Nordeste 24 Nordeste 0 -- -- 73
2021-01-13 19:00:00 13.2 18 Nordeste 33 Nordeste 0 -- -- 75
2021-01-13 18:00:00 13.7 24 Nordeste 41 Nordeste 0 -- -- 73
2021-01-13 17:00:00 14.4 24 Nordeste 44 Nordeste 0 -- -- 71
2021-01-13 16:00:00 15.5 27 Nordeste 45 Nordeste 0 -- -- 66
2021-01-13 15:00:00 14.2 23 Nordeste 42 Nordeste 0 -- -- 76
2021-01-13 14:00:00 14.6 26 Nordeste 41 Este 0 -- -- 73
2021-01-13 13:00:00 16 29 Nordeste 47 Nordeste 0 -- -- 70
2021-01-13 12:00:00 16.2 21 Nordeste 38 Nordeste 0 -- -- 66
2021-01-13 11:00:00 14.2 20 Nordeste 36 Nordeste 0 -- -- 72
2021-01-13 10:00:00 13.3 19 Nordeste 32 Nordeste 0 -- -- 79
2021-01-13 09:00:00 12.9 18 Nordeste 34 Norte 0 -- -- 77
2021-01-13 08:00:00 12.2 19 Nordeste 39 Nordeste 0 -- -- 81
2021-01-13 07:00:00 12 15 Nordeste 27 Nordeste 0 -- -- 90
2021-01-13 06:00:00 12.1 19 Nordeste 30 Nordeste 0 -- -- 91
2021-01-13 05:00:00 12.3 12 Nordeste 22 Nordeste 0 -- -- 73
2021-01-13 04:00:00 12.2 8 Norte 27 Norte 0 -- -- 77
2021-01-13 03:00:00 12.4 18 Nordeste 27 Nordeste 0 -- -- 81
2021-01-13 02:00:00 12.5 14 Norte 25 Nordeste 0 -- -- 77
2021-01-13 01:00:00 12.5 14 Norte 21 Norte 0 -- -- 73
2021-01-13 00:00:00 12.4 12 Norte 21 Norte 0 -- -- 74
2021-01-12 23:00:00 12.2 10 Nordeste 24 Norte 0 -- -- 77
2021-01-12 22:00:00 12.1 15 Norte 25 Nordeste 0 -- -- 75
2021-01-12 21:00:00 12.5 18 Nordeste 28 Nordeste 0 -- -- 69
2021-01-12 20:00:00 12.3 14 Nordeste 29 Norte 0 -- -- 69
2021-01-12 19:00:00 12.5 5 Norte 25 Nordeste 0 -- -- 80
2021-01-12 18:00:00 13 14 Nordeste 32 Nordeste 0 -- -- 81
2021-01-12 17:00:00 14 18 Nordeste 36 Este 0 -- -- 80
2021-01-12 16:00:00 14.6 19 Nordeste 32 Nordeste 0 -- -- 74
2021-01-12 15:00:00 15.1 18 Este 33 Este 0 -- -- 71
2021-01-12 14:00:00 15.1 15 Nordeste 32 Este 0 -- -- 68
2021-01-12 13:00:00 15.8 21 Nordeste 38 Este 0 -- -- 68
2021-01-12 12:00:00 15.4 19 Nordeste 30 Este 0 -- -- 66
2021-01-12 11:00:00 14.8 12 Nordeste 22 Nordeste 0 -- -- 70
2021-01-12 10:00:00 14.9 13 Nordeste 25 Nordeste 0 -- -- 68
2021-01-12 09:00:00 12.5 7 Nordeste 15 Este 0 -- -- 71
2021-01-12 08:00:00 12.1 4 Norte 17 Norte 0 -- -- 72
2021-01-12 07:00:00 12.5 5 Este 28 Norte 0 -- -- 60
2021-01-12 06:00:00 12.1 5 Norte 14 Noroeste 0 -- -- 60
2021-01-12 05:00:00 11.4 6 Noroeste 13 Norte 0 -- -- 66
2021-01-12 04:00:00 11.7 12 Noroeste 16 Noroeste 0 -- -- 64
2021-01-12 03:00:00 11.5 7 Noroeste 10 Noroeste 0 -- -- 70
2021-01-12 02:00:00 11.1 4 Norte 16 Noroeste 0 -- -- 69
2021-01-12 01:00:00 11.2 3 Nordeste 11 Noroeste 0 -- -- 73
2021-01-12 00:00:00 11.7 8 Norte 19 Nordeste 0 -- -- 78
2021-01-11 23:00:00 12.1 15 Nordeste 27 Nordeste 0 -- -- 82
2021-01-11 22:00:00 12.4 7 Norte 23 Nordeste 0 -- -- 67
2021-01-11 21:00:00 12.5 6 Norte 24 Nordeste 0 -- -- 68
2021-01-11 20:00:00 12.6 14 Nordeste 24 Nordeste 0 -- -- 66
2021-01-11 19:00:00 12.8 8 Norte 25 Nordeste 0 -- -- 65
2021-01-11 18:00:00 13.9 11 Nordeste 31 Norte 0 -- -- 63
2021-01-11 17:00:00 15.3 18 Nordeste 31 Nordeste 0 -- -- 53
2021-01-11 16:00:00 16 18 Este 37 Este 0 -- -- 64
2021-01-11 15:00:00 17 19 Este 51 Este 0 -- -- 54
2021-01-11 14:00:00 18 20 Este 38 Nordeste 0 -- -- 49
2021-01-11 13:00:00 17.3 19 Nordeste 33 Nordeste 0 -- -- 50
2021-01-11 12:00:00 17 16 Este 28 Este 0 -- -- 49
2021-01-11 11:00:00 16.2 18 Este 32 Este 0 -- -- 49
2021-01-11 10:00:00 14.8 17 Nordeste 27 Nordeste 0 -- -- 55
2021-01-11 09:00:00 12 6 Sudeste 20 Este 0 -- -- 68
2021-01-11 08:00:00 10.5 4 Sudoeste 12 Noroeste 0 -- -- 75
2021-01-11 07:00:00 10.9 4 Noroeste 15 Noroeste 0 -- -- 76
2021-01-11 06:00:00 10.9 8 Noroeste 15 Noroeste 0 -- -- 77
2021-01-11 05:00:00 11.1 8 Noroeste 12 Noroeste 0 -- -- 77
2021-01-11 04:00:00 11 5 Norte 11 Norte 0 -- -- 78
2021-01-11 03:00:00 11.6 5 Este 10 Este 0 -- -- 76
2021-01-11 02:00:00 11.5 4 Nordeste 20 Oeste 0 -- -- 77
2021-01-11 01:00:00 12.8 17 Oeste 30 Oeste 0 -- -- 73
2021-01-11 00:00:00 12.6 7 Sudoeste 28 Oeste 0 -- -- 73
2021-01-10 23:00:00 14.1 11 Sudoeste 50 Norte 0 -- -- 59
2021-01-10 22:00:00 12.6 7 Noroeste 24 Sudoeste 0 -- -- 53
2021-01-10 21:00:00 13 13 Sudoeste 27 Oeste 0 -- -- 76
2021-01-10 20:00:00 12.7 8 Oeste 17 Noroeste 0 -- -- 80
2021-01-10 19:00:00 13.1 5 Noroeste 6 Norte 0 -- -- 79
2021-01-10 18:00:00 14.4 6 Sur 16 Sudoeste 0 -- -- 74
2021-01-10 17:00:00 15.4 10 Sur 18 Sur 0 -- -- 69
2021-01-10 16:00:00 16.6 9 Sur 22 Sur 0 -- -- 66
2021-01-10 15:00:00 16.2 9 Sudeste 19 Sur 0 -- -- 65
2021-01-10 14:00:00 17 8 Sudeste 22 Sudeste 0 -- -- 63
2021-01-10 13:00:00 16.3 10 Sur 23 Sudeste 0 -- -- 67
2021-01-10 12:00:00 16 12 Sur 23 Sur 0 -- -- 66
2021-01-10 11:00:00 15.4 10 Sur 31 Sudoeste 0 -- -- 65
2021-01-10 10:00:00 14.5 15 Sudoeste 24 Sudoeste 0 -- -- 68
2021-01-10 09:00:00 13.2 7 Oeste 28 Oeste 0 -- -- 67
2021-01-10 08:00:00 12.1 13 Oeste 28 Noroeste 0 -- -- 71
2021-01-10 07:00:00 11.4 12 Oeste 21 Oeste 0 -- -- 69
2021-01-10 06:00:00 11.5 12 Oeste 22 Oeste 0 -- -- 67
2021-01-10 05:00:00 11.7 18 Oeste 29 Oeste 0 -- -- 69
2021-01-10 04:00:00 11.9 18 Oeste 25 Oeste 0 -- -- 66
2021-01-10 03:00:00 11.5 17 Oeste 22 Oeste 0 -- -- 68
2021-01-10 02:00:00 11.4 13 Oeste 20 Oeste 0 -- -- 67
2021-01-10 01:00:00 11.5 14 Oeste 19 Oeste 0 -- -- 70
2021-01-10 00:00:00 11.7 11 Oeste 33 Oeste 0 -- -- 68
2021-01-09 23:00:00 11.7 19 Oeste 29 Oeste 0 -- -- 61
2021-01-09 22:00:00 11.9 6 Sur 24 Oeste 0 -- -- 53
2021-01-09 21:00:00 11.5 7 Noroeste 22 Oeste 0 -- -- 47
2021-01-09 20:00:00 11.6 9 Noroeste 19 Noroeste 0 -- -- 55
2021-01-09 19:00:00 12.3 6 Sudeste 20 Sudeste 0 -- -- 61
2021-01-09 18:00:00 14.6 7 Sudeste 37 Noroeste 0 -- -- 54
2021-01-09 17:00:00 15.8 10 Nordeste 32 Oeste 0 -- -- 51
2021-01-09 16:00:00 16.4 11 Sudeste 30 Este 0 -- -- 54
2021-01-09 15:00:00 16 11 Este 47 Noroeste 0.2 -- -- 54
2021-01-09 14:00:00 14.5 11 Noroeste 27 Sudoeste 0 -- -- 56
2021-01-09 13:00:00 16 8 Sudeste 32 Norte 0.2 -- -- 68
2021-01-09 12:00:00 14 8 Norte 24 Nordeste 1 -- -- 72
2021-01-09 11:00:00 15.6 8 Sur 16 Sudeste 0 -- -- 66
2021-01-09 10:00:00 14.7 12 Sudeste 24 Sudoeste 0 -- -- 67
2021-01-09 09:00:00 13.3 12 Oeste 44 Sudoeste 0 -- -- 68
2021-01-09 08:00:00 11.1 9 Sudoeste 19 Noroeste 0 -- -- 71
2021-01-09 07:00:00 11 11 Oeste 18 Oeste 0.2 -- -- 80
2021-01-09 06:00:00 10.7 11 Noroeste 15 Noroeste 0 -- -- 81
2021-01-09 05:00:00 11.4 5 Oeste 18 Noroeste 0 -- -- 82
2021-01-09 04:00:00 11.2 5 Sudoeste 15 Oeste 0 -- -- 80
2021-01-09 03:00:00 11.8 10 Noroeste 23 Oeste 0 -- -- 76
2021-01-09 02:00:00 11.7 15 Oeste 20 Oeste 0 -- -- 76
2021-01-09 01:00:00 11.5 13 Noroeste 21 Noroeste 0 -- -- 71
2021-01-09 00:00:00 12.2 11 Oeste 19 Oeste 0 -- -- 81
2021-01-08 23:00:00 12.1 12 Oeste 17 Oeste 0 -- -- 83
2021-01-08 22:00:00 12.4 9 Noroeste 14 Oeste 0.2 -- -- 86
2021-01-08 21:00:00 12.5 12 Noroeste 18 Oeste 0 -- -- 86
2021-01-08 20:00:00 12.6 8 Oeste 11 Oeste 0.2 -- -- 90
2021-01-08 19:00:00 13.2 5 Oeste 8 Oeste 0.2 -- -- 89
2021-01-08 18:00:00 13.3 6 Noroeste 17 Noroeste 4 -- -- 90
2021-01-08 17:00:00 14.3 6 Oeste 30 Sudoeste 0.4 -- -- 82
2021-01-08 16:00:00 15.7 8 Sudoeste 15 Sudoeste 0.4 -- -- 75
2021-01-08 15:00:00 16.1 10 Sudoeste 19 Sudoeste 0 -- -- 72
2021-01-08 14:00:00 16.2 10 Noroeste 15 Noroeste 0 -- -- 76
2021-01-08 13:00:00 16.3 5 Noroeste 18 Noroeste 0.4 -- -- 68
2021-01-08 12:00:00 17.1 9 Este 18 Este 0 -- -- 69
2021-01-08 11:00:00 18.5 8 Sudeste 17 Sudeste 0 -- -- 67
2021-01-08 10:00:00 17.7 8 Sur 15 Sudoeste 0 -- -- 74
2021-01-08 09:00:00 15.7 8 Oeste 19 Oeste 0 -- -- 81
2021-01-08 08:00:00 14.4 10 Oeste 16 Oeste 0 -- -- 86
2021-01-08 07:00:00 14.7 3 Noroeste 14 Este 0 -- -- 84
2021-01-08 06:00:00 15.1 6 Norte 17 Sudoeste 0 -- -- 82
2021-01-08 05:00:00 15.1 7 Sudoeste 17 Sudoeste 0 -- -- 83
2021-01-08 04:00:00 15.5 6 Norte 18 Norte 0 -- -- 85
2021-01-08 03:00:00 15.2 10 Norte 33 Sudoeste 0 -- -- 82
2021-01-08 02:00:00 15.3 12 Sudeste 31 Sudoeste 0 -- -- 71
2021-01-08 01:00:00 15.3 4 Noroeste 14 Noroeste 0 -- -- 86
2021-01-08 00:00:00 16 10 Norte 43 Oeste 0 -- -- 81
2021-01-07 23:00:00 17.2 16 Sudoeste 59 Sudoeste 0 -- -- 72
2021-01-07 22:00:00 16.5 33 Sudoeste 63 Sudoeste 0.6 -- -- 86
2021-01-07 21:00:00 16.7 39 Sudoeste 66 Sudoeste 0.8 -- -- 85
2021-01-07 20:00:00 16.9 36 Sudoeste 78 Sudoeste 0.2 -- -- 83
2021-01-07 19:00:00 17 37 Sudoeste 64 Sudoeste 1.8 -- -- 77
2021-01-07 18:00:00 17.4 38 Sudoeste 70 Sudoeste 0.2 -- -- 78
2021-01-07 17:00:00 17.4 40 Sudoeste 71 Sudoeste 3.2 -- -- 81
2021-01-07 16:00:00 17.6 46 Sudoeste 78 Sudoeste 3.6 -- -- 87
2021-01-07 15:00:00 18.3 45 Sudoeste 77 Sudoeste 1.2 -- -- 81
2021-01-07 14:00:00 19 33 Sudoeste 67 Sudoeste 1.4 -- -- 77
2021-01-07 13:00:00 19 37 Sudoeste 66 Sudoeste 0.4 -- -- 77
2021-01-07 12:00:00 18.3 34 Sudoeste 65 Sudoeste 0.6 -- -- 78
2021-01-07 11:00:00 18.9 32 Sudoeste 51 Sudoeste 0.2 -- -- 74
2021-01-07 10:00:00 16.2 28 Sudoeste 59 Sudoeste 5.2 -- -- 91
2021-01-07 09:00:00 16.7 35 Sudoeste 73 Sudoeste 3.8 -- -- 94
2021-01-07 08:00:00 16.3 39 Sudoeste 73 Sudoeste 2.8 -- -- 97
2021-01-07 07:00:00 16.5 47 Sudoeste 83 Sudoeste 13.2 -- -- 98
2021-01-07 06:00:00 17 39 Sudoeste 64 Oeste 0 -- -- 84
2021-01-07 05:00:00 17.5 25 Sudoeste 46 Sudoeste 0 -- -- 72
2021-01-07 04:00:00 15.8 6 Oeste 19 Noroeste 0 -- -- 80
2021-01-07 03:00:00 15.3 8 Noroeste 15 Noroeste 0 -- -- 87
2021-01-07 02:00:00 15.5 8 Noroeste 13 Noroeste 0 -- -- 87
2021-01-07 01:00:00 16 5 Noroeste 13 Noroeste 0 -- -- 86
2021-01-07 00:00:00 16.1 6 Norte 12 Norte 0 -- -- 87
2021-01-06 23:00:00 16.3 7 Noroeste 13 Noroeste 0 -- -- 86
2021-01-06 22:00:00 16.6 4 Noroeste 14 Noroeste 0 -- -- 84
2021-01-06 21:00:00 16.8 7 Noroeste 13 Noroeste 0 -- -- 85
2021-01-06 20:00:00 16.9 9 Noroeste 16 Oeste 0 -- -- 85
2021-01-06 19:00:00 17.6 6 Noroeste 12 Nordeste 0 -- -- 86
2021-01-06 18:00:00 19 4 Sudeste 19 Nordeste 0 -- -- 82
2021-01-06 17:00:00 20.4 12 Nordeste 23 Este 0 -- -- 77
2021-01-06 16:00:00 20.6 12 Nordeste 27 Nordeste 0 -- -- 78
2021-01-06 15:00:00 21.4 10 Nordeste 18 Este 0 -- -- 76
2021-01-06 14:00:00 20.3 7 Nordeste 28 Noroeste 0 -- -- 82
2021-01-06 13:00:00 20 6 Nordeste 21 Este 0 -- -- 84
2021-01-06 12:00:00 18.1 8 Sudoeste 53 Sudoeste 5 -- -- 90
2021-01-06 11:00:00 18.2 33 Sudoeste 50 Sudoeste 1.8 -- -- 91
2021-01-06 10:00:00 17.8 10 Nordeste 45 Sudoeste 0.4 -- -- 87
2021-01-06 09:00:00 17.4 14 Oeste 65 Sudoeste 0.2 -- -- 87
2021-01-06 08:00:00 17.2 40 Sudoeste 69 Sudoeste 4.4 -- -- 97
2021-01-06 07:00:00 16.9 41 Sudoeste 67 Sudoeste 10.6 -- -- 98
2021-01-06 06:00:00 16.9 26 Sudoeste 54 Sudoeste 2 -- -- 93
2021-01-06 05:00:00 16.6 26 Sudoeste 50 Sudoeste 0 -- -- 89
2021-01-06 04:00:00 16.7 28 Sudoeste 47 Sudoeste 0 -- -- 81
2021-01-06 03:00:00 16.4 30 Sur 46 Sur 0 -- -- 86
2021-01-06 02:00:00 16 15 Sudoeste 30 Sudoeste 0 -- -- 83
2021-01-06 01:00:00 15.3 9 Oeste 16 Oeste 0 -- -- 80
2021-01-06 00:00:00 15 9 Noroeste 15 Noroeste 0 -- -- 82
2021-01-05 23:00:00 15.2 8 Noroeste 12 Noroeste 0 -- -- 81
2021-01-05 22:00:00 15.2 7 Noroeste 11 Noroeste 0 -- -- 84
2021-01-05 21:00:00 15.9 3 Oeste 15 Noroeste 0 -- -- 82
2021-01-05 20:00:00 16.4 3 Sudoeste 10 Oeste 0 -- -- 81
2021-01-05 19:00:00 16.8 4 Sudoeste 9 Noroeste 0 -- -- 84
2021-01-05 18:00:00 18.4 6 Este 12 Nordeste 0 -- -- 78
2021-01-05 17:00:00 18.9 8 Nordeste 14 Nordeste 0 -- -- 73
2021-01-05 16:00:00 19.6 5 Este 11 Sudeste 0 -- -- 72
2021-01-05 15:00:00 20 6 Nordeste 14 Este 0 -- -- 71
2021-01-05 14:00:00 21.6 7 Este 17 Este 0 -- -- 67
2021-01-05 13:00:00 22.1 9 Este 16 Sudeste 0 -- -- 68
2021-01-05 12:00:00 21.6 5 Nordeste 12 Sudeste 0 -- -- 66
2021-01-05 11:00:00 20.2 6 Este 14 Este 0 -- -- 71
2021-01-05 10:00:00 18.7 9 Nordeste 13 Nordeste 0 -- -- 75
2021-01-05 09:00:00 16.6 7 Noroeste 14 Noroeste 0 -- -- 76
2021-01-05 08:00:00 14.9 5 Oeste 17 Noroeste 0 -- -- 79
2021-01-05 07:00:00 14.8 12 Noroeste 22 Noroeste 0 -- -- 74
2021-01-05 06:00:00 14.5 12 Noroeste 20 Noroeste 0 -- -- 78
2021-01-05 05:00:00 15.5 5 Oeste 19 Noroeste 0 -- -- 72
2021-01-05 04:00:00 14.9 14 Noroeste 18 Noroeste 0 -- -- 75
2021-01-05 03:00:00 15.3 12 Noroeste 20 Norte 0 -- -- 81
2021-01-05 02:00:00 15.2 6 Noroeste 15 Noroeste 0 -- -- 84
2021-01-05 01:00:00 14.4 12 Noroeste 17 Noroeste 0 -- -- 90
2021-01-05 00:00:00 14.7 5 Norte 17 Oeste 0 -- -- 90
2021-01-04 23:00:00 15.2 7 Norte 14 Nordeste 0 -- -- 87
2021-01-04 22:00:00 16.4 5 Nordeste 34 Sur 0 -- -- 90
2021-01-04 21:00:00 16.1 8 Sur 49 Sur 0 -- -- 88
2021-01-04 20:00:00 16.2 28 Sudoeste 49 Sur 0 -- -- 89
2021-01-04 19:00:00 15.9 36 Sur 62 Sur 0 -- -- 91
2021-01-04 18:00:00 16.2 39 Sur 62 Sur 0 -- -- 89
2021-01-04 17:00:00 16.3 44 Sur 62 Sur 0 -- -- 86
2021-01-04 16:00:00 15.9 41 Sur 60 Sur 0 -- -- 91
2021-01-04 15:00:00 15.6 35 Sudoeste 60 Sudoeste 0 -- -- 94
2021-01-04 14:00:00 15.4 36 Sudoeste 55 Sudoeste 0.2 -- -- 96
2021-01-04 13:00:00 15.2 30 Sudoeste 49 Sur 0.2 -- -- 96
2021-01-04 12:00:00 14.9 21 Sudoeste 34 Sudoeste 1 -- -- 96
2021-01-04 11:00:00 15 17 Sudoeste 34 Sudoeste 0 -- -- 92
2021-01-04 10:00:00 14.6 18 Sudoeste 31 Sudoeste 0.2 -- -- 93
2021-01-04 09:00:00 14 10 Oeste 22 Oeste 0.2 -- -- 92
2021-01-04 08:00:00 14.2 14 Oeste 22 Sudoeste 0 -- -- 89
2021-01-04 07:00:00 14.2 12 Oeste 20 Sudoeste 0 -- -- 87
2021-01-04 06:00:00 14.1 10 Oeste 14 Oeste 0 -- -- 87
2021-01-04 05:00:00 14 9 Oeste 16 Sudoeste 0 -- -- 88
2021-01-04 04:00:00 13.8 5 Oeste 14 Oeste 0 -- -- 87
2021-01-04 03:00:00 13.5 12 Oeste 16 Oeste 0 -- -- 88
2021-01-04 02:00:00 13.3 10 Oeste 17 Oeste 0.2 -- -- 88
2021-01-04 01:00:00 14 8 Oeste 13 Sudoeste 0 -- -- 84
2021-01-04 00:00:00 13.8 7 Oeste 18 Sudoeste 0 -- -- 80
2021-01-03 23:00:00 13.4 13 Oeste 17 Oeste 0 -- -- 75
2021-01-03 22:00:00 13.4 3 Oeste 12 Noroeste 0 -- -- 75
2021-01-03 21:00:00 13.3 6 Noroeste 10 Noroeste 0 -- -- 79
2021-01-03 20:00:00 13.8 3 Oeste 6 Sudoeste 0 -- -- 81
2021-01-03 19:00:00 14.4 0 Calma 6 Este 0 -- -- 82
2021-01-03 18:00:00 14.8 3 Este 10 Este 0 -- -- 80
2021-01-03 17:00:00 15.3 7 Este 14 Este 0 -- -- 77
2021-01-03 16:00:00 16.1 6 Este 17 Este 0 -- -- 74
2021-01-03 15:00:00 16.4 6 Este 17 Sudeste 0 -- -- 76
2021-01-03 14:00:00 16.1 9 Este 15 Nordeste 0 -- -- 74
2021-01-03 13:00:00 15.1 8 Nordeste 13 Nordeste 0 -- -- 79
2021-01-03 12:00:00 14.7 8 Nordeste 12 Nordeste 0 -- -- 83
2021-01-03 11:00:00 14.4 8 Nordeste 12 Nordeste 0 -- -- 81
2021-01-03 10:00:00 14 3 Norte 8 Noroeste 0 -- -- 77
2021-01-03 09:00:00 13.4 6 Noroeste 10 Noroeste 0 -- -- 78
2021-01-03 08:00:00 13.1 6 Noroeste 13 Noroeste 0 -- -- 78
2021-01-03 07:00:00 13.2 6 Noroeste 13 Noroeste 0 -- -- 81
2021-01-03 06:00:00 12.8 5 Norte 15 Norte 0 -- -- 87
2021-01-03 05:00:00 13.3 10 Noroeste 17 Norte 0 -- -- 84
2021-01-03 04:00:00 13.3 6 Norte 14 Norte 0 -- -- 83
2021-01-03 03:00:00 13.4 4 Nordeste 25 Norte 0 -- -- 83
2021-01-03 02:00:00 13.5 12 Norte 23 Norte 0 -- -- 82
2021-01-03 01:00:00 13.4 9 Norte 20 Norte 0 -- -- 81
2021-01-03 00:00:00 13.4 8 Norte 16 Nordeste 0 -- -- 82
2021-01-02 23:00:00 13.7 5 Norte 19 Nordeste 0 -- -- 80
2021-01-02 22:00:00 13.7 13 Nordeste 24 Nordeste 0 -- -- 82
2021-01-02 21:00:00 13.6 12 Nordeste 22 Nordeste 0 -- -- 82
2021-01-02 20:00:00 12.8 10 Norte 15 Norte 0 -- -- 76
2021-01-02 19:00:00 13 6 Norte 22 Nordeste 0 -- -- 77
2021-01-02 18:00:00 14.3 15 Nordeste 25 Nordeste 0 -- -- 73
2021-01-02 17:00:00 15.1 13 Nordeste 27 Nordeste 0 -- -- 69
2021-01-02 16:00:00 15.6 16 Nordeste 26 Nordeste 0 -- -- 67
2021-01-02 15:00:00 16.2 14 Este 28 Este 0 -- -- 64
2021-01-02 14:00:00 16.4 16 Nordeste 25 Nordeste 0 -- -- 56
2021-01-02 13:00:00 15.3 15 Nordeste 35 Nordeste 0 -- -- 63